Location: ???????
(55.9142°N, 37.8256°E)
Time: 04:09:47
(UTC+00:00)

CZ-2D R/B - Visible Passes

Search period start: 16 July 2025 00:00
Search period end: 26 July 2025 00:00
Orbit: 789 x 842 km, 98.8° (Epoch: 15 July)

Date Brightness Start Highest point End Pass type
(mag) Time Alt. Az. Time Alt. Az. Time Alt. Az.
16 Jul 4.4 22:30:14 10° NE 22:33:16 15° E 22:36:16 10° ESE visible
17 Jul 2.3 00:08:55 10° NNE 00:14:11 76° ESE 00:19:23 10° SSW visible
17 Jul 4.7 22:10:10 10° ENE 22:10:47 10° E 22:11:24 10° E visible
17 Jul 2.7 23:46:54 10° NNE 23:52:02 53° E 23:57:06 10° S visible
18 Jul 3.3 23:24:58 10° NNE 23:29:49 37° E 23:34:36 10° SSE visible
19 Jul 3.8 23:03:10 10° NE 23:07:31 26° E 23:11:50 10° SSE visible
20 Jul 4.2 22:41:34 10° NE 22:45:10 18° E 22:48:43 10° SE visible
21 Jul 2.1 00:20:39 10° NNE 00:25:54 89° ESE 00:31:07 10° SSW visible
21 Jul 4.5 22:20:28 10° ENE 22:22:43 13° E 22:24:57 10° ESE visible
21 Jul 2.4 23:58:35 10° NNE 00:03:47 64° ESE 00:08:56 10° S visible
22 Jul 3.0 23:36:36 10° NNE 23:41:36 44° E 23:46:33 10° S visible
23 Jul 3.5 23:14:43 10° NNE 23:19:21 31° E 23:23:57 10° SSE visible
24 Jul 4.0 22:52:59 10° NE 22:57:01 22° E 23:01:01 10° SE visible
25 Jul 4.4 22:31:34 10° NE 22:34:37 15° E 22:37:39 10° ESE visible
